Weather History for KEED - October, 2013

Change the Weather History Date:

Wednesday, October 16, 2013

  Actual Average Record
Temperature  
Mean Temperature 72 °F -  
Max Temperature 81 °F 86 °F 103 °F (1991)
Min Temperature 61 °F 59 °F 48 °F (1981)
Cooling Degree Days 6    
Growing Degree Days 22 (Base 50)    
Moisture  
Dew Point 26 °F    
Average Humidity 20    
Maximum Humidity 26    
Minimum Humidity 14    
Precipitation  
Precipitation 0.00 in - - ()
Sea Level Pressure  
Sea Level Pressure 30.01 in    
Wind  
Wind Speed 13 mph (North)    
Max Wind Speed 22 mph    
Max Gust Speed 25 mph    
Visibility 10 miles    
Events      
Averages and records for this station are not official NWS values.
T = Trace of Precipitation, MM = Missing Value Source: NWS Daily Summary

Daily Weather History Graph

Daily Weather History Graph

Search for Another Location

Airport or City:

Trip Planner

Search our weather history database for the weather conditions in past years. The results will help you decide how hot, cold, wet, or windy it might be!

Date:

Astronomy

Oct. 16, 2013 Rise Set
Actual Time 6:45 AM PDT 6:02 PM PDT
Civil Twilight 6:19 AM PDT 6:27 PM PDT
Nautical Twilight 5:50 AM PDT 6:56 PM PDT
Astronomical Twilight 5:21 AM PDT 7:26 PM PDT
Moon 4:40 PM PDT (10/16) 4:22 AM PDT (10/16)
Length of Visible Light 12h 07m
Length of Day
11h 16m
Waxing Gibbous, 94% of the Moon is Illuminated
Oct 16
Waxing Gibbous
Oct 18
Full
Oct 26
Last Quarter
Nov 3
New
Nov 9
First Quarter

Hourly Weather History & Observations

Time (PDT) Temp. Dew Point Humidity Pressure Visibility Wind Dir Wind Speed Gust Speed Precip Events Conditions
12:56 AM 66.9 °F 26.1 °F 21% 29.99 in 10.0 mi North 12.7 mph - N/A   Clear
1:56 AM 64.9 °F 26.1 °F 23% 29.99 in 10.0 mi North 11.5 mph - N/A   Clear
2:56 AM 64.9 °F 27.0 °F 24% 29.99 in 10.0 mi North 18.4 mph - N/A   Clear
3:56 AM 63.0 °F 27.0 °F 26% 29.99 in 10.0 mi NNW 9.2 mph - N/A   Clear
4:56 AM 63.0 °F 26.1 °F 25% 30.00 in 10.0 mi North 6.9 mph - N/A   Clear
5:56 AM 63.0 °F 26.1 °F 25% 30.01 in 10.0 mi North 16.1 mph - N/A   Clear
6:56 AM 63.0 °F 27.0 °F 26% 30.04 in 10.0 mi North 15.0 mph - N/A   Clear
7:56 AM 64.0 °F 28.0 °F 26% 30.06 in 10.0 mi North 13.8 mph 21.9 mph N/A   Clear
8:37 AM 66.2 °F 28.4 °F 24% 30.14 in 10.0 mi North 18.4 mph 25.3 mph N/A   Partly Cloudy
8:56 AM 68.0 °F 28.9 °F 23% 30.08 in 10.0 mi North 18.4 mph 25.3 mph N/A   Clear
9:56 AM 71.1 °F 28.9 °F 21% 30.09 in 10.0 mi NNE 21.9 mph - N/A   Clear
10:56 AM 73.9 °F 28.9 °F 19% 30.08 in 10.0 mi NNE 17.3 mph - N/A   Clear
11:56 AM 75.9 °F 28.9 °F 18% 30.06 in 10.0 mi NNE 16.1 mph 25.3 mph N/A   Clear
12:56 PM 78.1 °F 28.9 °F 17% 30.03 in 10.0 mi NNE 16.1 mph 24.2 mph N/A   Clear
1:56 PM 80.1 °F 28.9 °F 15% 30.00 in 10.0 mi NNE 18.4 mph 23.0 mph N/A   Clear
2:56 PM 79.0 °F 27.0 °F 15% 29.98 in 10.0 mi NNE 12.7 mph - N/A   Clear
3:56 PM 80.1 °F 27.0 °F 14% 29.96 in 10.0 mi North 12.7 mph - N/A   Clear
4:56 PM 79.0 °F 25.0 °F 14% 29.96 in 10.0 mi NE 9.2 mph - N/A   Clear
5:56 PM 75.0 °F 25.0 °F 16% 29.96 in 10.0 mi North 4.6 mph - N/A   Clear
6:56 PM 70.0 °F 24.1 °F 18% 29.96 in 10.0 mi NW 4.6 mph - N/A   Clear
7:56 PM 66.9 °F 21.9 °F 18% 29.98 in 10.0 mi NW 6.9 mph - N/A   Clear
8:56 PM 66.0 °F 21.0 °F 18% 29.98 in 10.0 mi WNW 8.1 mph - N/A   Clear
9:56 PM 66.0 °F 19.0 °F 17% 29.98 in 10.0 mi NW 8.1 mph - N/A   Clear
10:56 PM 63.0 °F 18.0 °F 18% 29.98 in 10.0 mi WNW 9.2 mph - N/A   Clear
11:56 PM 61.0 °F 19.0 °F 20% 29.97 in 10.0 mi West 9.2 mph - N/A   Clear